User: anonymous   Login
Location: Unspecified
(0.0000°N, 0.0000°E)
Time: 06:16:44
(UTC+00:00)
Language:

PANSAT - Orbit

View from above orbital plane
View from above orbital plane
View from above satellite
View from above satellite

Ground track
Ground track

The orbit data is extracted from the following two-line orbital elements,

1 25520U 98064B   18116.80400138  .00000799  00000-0  19975-4 0  9992
2 25520  28.4601   7.6066 0004975 241.3767 118.6328 15.28809065 82325
Epoch (UTC): 26 April 2018 19:17:45
Eccentricity: 0.0004975
inclination: 28.4601°
perigee height: 476 km
apogee height: 483 km
right ascension of ascending node: 7.6066°
argument of perigee: 241.3767°
revolutions per day: 15.28809065
mean anomaly at epoch: 118.6328°
orbit number at epoch: 8232

The dashed part of the orbit path shows where the satellite is in the earth's shadow,  

DLR